Flag for Switzerland Weather past 2 weeks in Chur, Graubünden, Switzerland

Now
63 °F

Mild.


Feels Like: 63 °F
Forecast: 68 / 97 °F
Wind: 1 mph from Southwest

Location: Chur-Ems

Current Time: Aug 29, 2015 at 5:24:30 AM

Latest Report: Aug 29, 2015 at 4:00 AM


Visibility: N/A

Pressure: 30.21 "Hg (28.17 "Hg at 592m altitude)

Humidity: 81%

Dew point: 57 °F

Location of ChurLocation

Historic Weather in Chur — Graph

°F

Chur temperature yesterday

Maximum temperature yesterday: 87 °F (at 4:00 PM)
Minimum temperature yesterday: 63 °F (at 7:00 AM)
Average temperature yesterday: 76 °F

Past Weeks' High & Low Weather Summary

 TemperatureHumidityPressure
High88 °F (Aug 27, 4:00 PM)95% (Aug 15, 2:00 AM)30.30 "Hg (Aug 15, 2:00 AM)
Low53 °F (Aug 21, 7:00 AM)24% (Aug 27, 2:00 PM)29.65 "Hg (Aug 24, 12:40 PM)
Average65 °F68%29.98 "Hg
* Reported Aug 14 4:00 AM — Aug 29 4:00 AM, Chur, Weather by CustomWeather, © 2015

Note: Actual official high and low records may vary slightly from our data, if they occured in-between our weather recording intervals... More about our weather records

Advertising

Chur weather history for previous 24 hours

 ConditionsComfort  
Time TempWeatherWind HumidityBarometerVisibility
4:00 AM
Sat, Aug 29
63 °FMild.1 mph81%30.21 "HgN/A
3:00 AM65 °FMild.1 mph76%30.19 "HgN/A
2:00 AM65 °FPassing clouds.1 mph75%30.19 "Hg12 mi
1:00 AM67 °FMild.3 mph72%30.17 "HgN/A
10:00 PM
Fri, Aug 28
72 °FMild.1 mph64%30.11 "HgN/A
9:00 PM77 °FWarm.2 mph50%30.06 "HgN/A
8:00 PM79 °FPassing clouds.7 mph46%30.02 "Hg14 mi
7:00 PM82 °FWarm.8 mph40%30.00 "HgN/A
6:00 PM85 °FPleasantly warm.9 mph37%29.97 "HgN/A
5:00 PM86 °FPassing clouds.15 mph36%29.96 "Hg16 mi
4:00 PM87 °FPleasantly warm.12 mph35%29.96 "HgN/A
2:00 PM86 °FOvercast.6 mph33%29.98 "Hg16 mi
1:00 PM84 °FPleasantly warm.2 mph32%30.00 "HgN/A
12:00 PM81 °FPleasantly warm.3 mph37%30.02 "HgN/A
11:00 AM77 °FPartly sunny.7 mph42%30.04 "Hg12 mi
10:00 AM73 °FMild.6 mph47%30.06 "HgN/A
9:00 AM69 °FMild.7 mph54%30.08 "HgN/A
8:00 AM66 °FPartly sunny.5 mph55%30.08 "Hg10 mi
7:00 AM63 °FMild.6 mph63%30.08 "HgN/A
Weather by CustomWeather, © 2015

See weather overviewHow to use our weather pages